Temperature
22 22 22 21 19 18 21 21 22 23 23 23 23 23 22 21 21 21 21 22 21 21 20 20 19 19 19 19 19 19 19 19 19 19 19 19 19 19 19 19 19 18 18 18 18 18 18 18 18
23 22 22 21 19 19 21 22 22 23 23 24 23 23 22 21 21 21 21 21 21 21 20 20 19 19 19 19 19 19 19 19 19 19 19 19 19 19 19 19 18 18 18 18 18 18 18 18 18
23 22 22 18 19 20 22 23 22 23 24 24 23 22 22 21 22 22 22 21 21 21 20 20 19 19 19 19 19 19 19 19 19 18 18 18 18 18 18 18 18 18 18 18 18 18 18 18 18
23 22 21 19 21 21 22 23 23 23 24 24 23 22 21 21 22 22 22 21 21 21 20 20 19 19 19 19 19 19 19 19 19 18 18 18 18 18 18 18 18 18 18 18 18 18 18 18 18
23 22 19 19 20 21 22 23 24 23 23 23 22 21 21 21 22 22 22 21 21 21 20 20 19 19 19 19 19 19 19 19 19 18 18 18 18 18 18 18 18 18 18 18 18 18 18 18 18
23 19 18 19 21 22 22 24 24 23 23 23 22 21 21 21 22 22 21 21 21 20 20 20 19 19 19 19 19 19 19 19 19 18 18 18 18 18 18 18 18 18 18 18 18 18 17 17 17
21 18 19 20 21 22 24 24 23 22 23 23 23 21 20 21 21 21 21 20 20 20 20 20 19 19 19 19 19 19 19 19 18 18 18 18 18 18 18 18 18 18 18 18 18 18 17 17 17
23 18 20 20 21 22 23 24 24 24 23 23 23 21 21 21 21 21 20 20 20 20 20 19 19 19 19 19 19 19 19 18 18 18 18 18 18 17 17 17 17 17 17 17 17 17 17 17 17
22 18 19 21 22 22 23 23 24 24 23 23 23 22 22 22 21 20 20 20 20 20 19 19 19 19 19 19 19 19 18 18 18 18 18 18 17 17 17 17 17 17 17 17 17 17 17 17 17
21 18 20 21 22 22 23 23 23 23 22 22 22 22 22 21 21 20 20 20 20 20 19 19 19 19 19 19 19 18 18 18 18 18 18 17 17 17 17 17 17 17 17 17 17 17 17 17 17
20 19 20 22 23 23 23 23 23 23 22 22 22 22 21 21 21 21 20 20 20 20 19 19 19 19 19 19 18 18 18 18 18 17 17 17 17 17 17 17 17 17 17 17 17 17 17 17 17
20 20 21 22 23 23 23 23 23 23 23 24 24 23 22 22 21 21 21 20 20 20 19 19 19 19 19 18 18 18 18 18 17 17 17 17 17 17 17 17 17 17 17 17 17 17 17 17 17
20 21 22 23 23 23 23 22 22 22 23 23 23 22 22 22 21 21 21 20 20 20 19 19 19 19 18 18 18 18 18 18 17 17 17 17 17 17 17 16 16 16 16 16 16 16 16 16 16
21 21 22 22 23 23 22 21 21 22 23 22 22 22 21 21 21 21 20 20 20 20 20 19 19 19 18 18 18 18 18 17 17 17 17 17 17 17 17 16 16 16 16 16 16 16 16 16 16
21 21 21 21 22 22 22 21 20 22 22 21 21 21 21 21 21 21 21 20 20 20 20 19 19 18 18 18 18 18 17 17 17 17 17 17 17 16 16 16 16 16 16 16 16 16 16 16 16
20 20 20 21 21 22 22 20 21 21 21 20 20 20 20 20 20 21 21 21 20 20 19 19 19 18 18 18 18 17 17 17 17 17 17 16 16 16 16 16 16 16 16 16 16 16 16 16 16
18 19 20 20 21 20 20 20 20 21 20 20 20 20 20 20 20 20 20 20 20 20 19 19 18 18 18 18 17 17 17 17 17 17 16 16 16 16 16 16 16 16 16 16 16 16 16 16 16
19 19 20 20 20 20 19 19 19 20 19 19 20 20 20 20 20 20 20 20 20 19 19 19 18 18 18 17 17 17 17 16 16 16 16 16 16 16 16 16 16 16 16 16 16 16 16 16 16
19 20 19 19 20 20 19 19 19 19 19 19 19 19 20 20 20 20 20 20 19 19 19 19 18 18 18 17 17 17 16 16 16 16 16 16 16 16 16 16 16 16 15 15 15 16 16 15 15
19 19 19 19 20 20 19 18 18 18 18 18 18 19 19 19 19 19 20 19 19 19 19 19 18 18 18 17 17 17 16 16 16 16 16 16 16 16 16 15 15 15 15 15 15 15 15 15 15
19 19 19 19 19 19 19 18 18 18 18 18 18 19 19 19 19 19 19 19 19 19 19 18 18 18 18 17 17 16 16 16 16 16 16 15 15 15 15 15 15 15 15 15 15 15 15 15 15
18 19 19 19 18 17 19 18 18 17 17 17 17 18 18 19 19 19 19 19 19 19 19 18 18 18 17 17 17 16 16 16 16 16 15 15 15 15 15 15 15 15 15 15 15 15 15 15 15
19 20 19 19 18 17 17 17 17 17 17 17 17 17 18 18 19 19 19 19 19 19 18 18 18 17 17 17 16 16 16 16 15 15 15 15 15 15 15 15 15 15 15 15 15 15 15 15 15
20 19 17 15 16 17 17 17 17 16 17 17 17 17 18 18 18 18 19 18 18 18 18 17 17 17 17 16 16 16 16 15 15 15 15 15 15 15 15 15 15 15 15 15 14 14 14 14 14
19 17 17 17 15 16 17 17 16 17 17 17 17 17 18 18 18 18 18 18 18 18 17 17 17 17 16 16 16 16 15 15 15 15 15 15 15 15 15 15 15 15 14 14 14 14 14 14 14
18 17 17 17 16 16 16 16 17 17 17 17 17 17 17 18 18 18 18 18 18 18 17 17 17 16 16 16 16 15 15 15 15 15 15 15 14 14 14 14 14 14 14 14 14 14 14 14 14
18 16 16 15 16 16 16 16 17 17 17 16 16 17 17 17 18 18 18 18 18 17 17 17 17 16 16 16 15 15 15 15 15 14 14 14 14 14 14 14 14 14 14 14 14 14 14 14 14
17 16 14 15 16 16 17 17 16 17 16 16 16 16 16 17 17 18 17 17 17 17 17 17 16 16 16 16 15 15 15 15 14 14 14 14 14 14 14 14 14 14 14 14 14 13 13 13 13
17 16 15 13 14 15 16 16 17 16 16 15 15 16 16 16 17 17 17 17 17 16 16 16 16 16 16 15 15 15 14 14 14 14 14 14 14 14 14 14 13 13 13 13 13 13 13 13 13
17 16 15 16 15 14 14 15 17 16 16 15 15 16 16 16 17 17 17 17 16 16 16 16 16 16 16 15 15 15 14 14 14 14 14 14 14 13 13 13 13 13 13 13 13 13 13 13 13
Wind_Speed
2 3 2 2 5 5 2 3 2 2 1 0 3 4 5 3 2 2 1 8 10 10 10 13 13 13 12 12 11 11 11 11 11 11 12 11 11 11 11 10 10 10 10 10 10 10 10 10 10
2 2 2 4 5 3 3 3 1 1 2 2 3 4 3 2 2 5 4 6 10 10 10 12 13 13 12 12 11 11 11 11 11 11 11 11 11 10 10 10 10 10 9 9 9 10 10 10 10
2 1 4 5 4 3 2 2 2 1 2 1 2 3 2 2 4 4 5 10 10 8 9 12 14 13 12 12 11 11 11 11 11 11 10 10 10 10 9 9 9 9 9 9 9 9 9 9 10
3 3 5 5 0 4 4 3 2 1 1 2 3 3 2 2 3 5 10 11 10 7 8 11 14 13 12 12 11 11 10 10 10 10 10 9 9 9 9 9 8 8 8 8 8 8 9 9 9
3 4 5 3 3 4 3 3 2 2 1 2 3 3 2 3 7 11 11 11 10 7 7 10 13 13 12 12 11 11 10 9 9 9 8 8 8 8 8 8 8 7 7 7 7 7 7 7 7
4 5 4 1 4 4 2 1 1 1 1 2 4 3 1 2 7 9 10 9 8 8 6 8 12 12 11 12 11 10 10 9 8 8 7 7 7 8 7 7 6 6 6 6 6 6 6 5 6
5 5 3 2 3 3 2 0 2 2 2 2 4 4 1 2 5 9 8 7 7 6 6 5 8 10 10 10 10 10 9 9 8 7 7 7 7 7 7 6 6 5 5 5 6 6 5 5 5
5 5 2 2 2 3 2 1 1 2 2 2 3 6 4 5 8 9 8 6 6 5 4 4 5 6 7 8 9 9 9 8 8 7 7 6 6 5 6 5 5 5 6 5 5 5 4 4 5
4 4 2 4 4 3 0 1 2 1 3 2 1 2 4 12 12 10 7 5 4 5 4 4 4 4 5 6 7 7 8 7 7 6 6 5 4 4 3 4 4 5 5 5 4 4 3 3 4
5 3 6 5 4 3 1 1 1 1 1 1 2 4 10 13 13 11 10 9 8 7 6 4 4 4 4 5 5 5 5 5 5 4 4 4 3 3 3 2 3 4 3 3 3 2 2 3 3
5 6 4 4 4 2 1 1 1 4 3 5 7 9 12 12 11 11 10 9 8 7 6 5 5 5 4 3 4 3 4 4 3 4 4 4 3 3 3 2 2 2 2 2 2 2 2 3 3
3 4 4 3 1 1 2 1 1 4 7 6 9 13 14 13 13 12 11 9 7 6 6 5 5 5 4 3 3 3 3 3 3 3 4 4 2 2 2 1 1 2 2 2 2 2 2 2 3
3 4 2 3 2 1 1 2 2 3 3 4 8 12 13 13 11 9 8 8 7 7 7 6 5 5 4 3 2 3 3 3 3 4 4 5 3 2 1 1 1 2 2 2 2 1 2 2 2
3 3 3 3 1 1 2 1 0 4 1 5 9 10 11 11 10 8 7 8 8 8 7 6 6 5 4 4 3 3 3 3 3 3 4 5 4 3 2 1 1 1 2 2 2 1 1 1 1
1 2 4 2 1 2 2 3 3 3 3 5 6 8 8 8 8 8 9 8 8 7 6 6 6 5 5 4 4 3 3 3 3 3 3 4 4 4 3 2 1 1 2 2 2 2 1 1 1
3 3 2 4 1 1 4 5 5 1 5 5 6 7 6 6 7 7 7 6 6 6 6 5 6 6 5 4 4 3 3 3 2 2 3 3 4 4 4 2 2 2 3 2 2 1 1 0 0
4 1 2 4 1 1 2 4 5 1 4 5 5 6 6 5 5 6 7 7 7 7 6 6 5 6 5 4 3 3 3 2 2 2 2 3 3 4 4 3 2 3 2 2 2 1 1 0 0
2 1 2 4 2 1 1 4 5 1 4 5 5 6 6 7 7 7 7 7 7 6 6 6 5 5 4 3 3 2 2 1 2 2 2 2 3 4 4 2 2 3 2 2 1 1 1 1 0
4 3 4 6 3 1 4 5 5 3 3 3 4 6 7 7 5 5 6 6 7 6 7 6 5 4 5 3 3 2 1 1 1 1 1 2 2 3 3 2 2 2 2 2 3 2 2 1 1
3 2 4 5 2 2 2 4 4 3 3 4 5 6 8 6 4 4 5 6 7 7 7 6 6 5 4 4 3 2 2 1 1 0 1 1 2 2 3 2 2 2 2 2 2 2 2 1 1
4 5 5 4 4 2 0 4 4 3 1 2 2 3 5 8 8 7 6 7 7 7 8 7 6 5 4 4 3 3 2 2 1 1 0 0 1 2 2 2 2 2 2 2 3 3 4 3 1
6 7 6 4 0 3 1 3 6 4 3 3 3 3 5 6 7 7 7 7 7 7 7 6 6 5 4 5 5 5 3 2 2 1 1 1 0 1 1 2 2 2 2 2 2 2 2 3 2
6 3 4 3 3 1 1 2 7 3 4 6 5 4 5 6 6 6 6 7 6 6 6 6 6 5 4 5 5 5 3 2 1 1 1 0 0 0 1 1 2 1 2 2 2 2 2 2 2
3 5 5 5 4 1 3 3 6 4 6 5 3 5 5 4 4 5 4 5 4 5 5 6 6 5 5 5 4 4 4 2 2 2 2 1 1 0 0 1 1 1 1 2 2 2 3 2 2
4 5 3 4 3 5 3 3 7 6 5 5 5 5 5 5 4 5 5 6 6 6 6 6 6 5 5 5 4 4 4 4 4 3 3 2 1 1 1 1 1 1 2 2 2 3 3 3 3
5 8 7 5 5 4 1 5 6 4 3 3 3 3 4 4 4 5 6 6 6 7 7 6 6 5 4 4 3 2 3 3 2 2 3 3 2 2 2 2 2 2 1 2 2 2 2 2 2
5 4 6 6 3 1 4 5 5 2 2 1 1 2 3 4 4 5 4 5 5 6 7 8 7 5 4 4 3 2 2 2 2 1 1 2 2 2 2 2 2 1 1 2 2 2 2 2 2
6 7 5 5 5 3 4 4 4 4 4 2 2 2 2 2 3 4 4 4 4 4 5 6 7 7 5 4 4 3 2 2 1 1 1 1 1 1 2 2 2 2 2 2 2 2 2 3 2
3 4 5 4 4 5 3 6 4 6 5 5 4 3 4 4 5 4 4 4 4 3 4 5 6 5 4 4 3 3 2 1 1 1 2 2 1 1 2 2 2 2 2 2 2 2 3 3 2
4 5 6 5 4 4 4 6 4 3 2 3 3 3 2 2 4 4 4 4 4 4 4 5 5 5 5 5 4 3 2 2 1 1 1 1 1 2 2 2 2 2 2 2 3 3 3 3 3
Wind_Direction
164 133 117 77 56 50 350 287 258 320 343 37 110 115 129 134 165 187 116 138 137 143 154 159 154 148 141 133 127 122 120 119 118 116 117 114 112 111 112 112 114 114 115 115 117 119 121 124 125
140 135 75 63 78 55 303 277 299 291 189 121 79 83 91 95 92 114 130 143 139 144 151 157 155 149 143 137 132 128 125 122 119 118 117 114 113 110 111 113 115 115 115 114 116 121 124 126 127
165 128 86 74 98 168 247 253 220 309 146 137 89 66 91 132 133 150 158 143 133 138 149 159 155 152 146 140 137 133 127 123 122 120 120 117 115 113 111 113 116 116 114 114 116 121 123 124 126
114 57 56 70 190 229 224 240 206 160 38 61 108 78 61 52 144 142 137 141 136 138 147 159 152 150 146 144 142 135 131 127 124 122 122 121 119 117 117 118 121 119 117 116 117 121 124 124 125
68 78 60 29 283 268 248 241 205 161 150 77 105 96 40 18 103 126 138 143 142 142 146 158 155 156 155 152 146 141 137 132 129 126 125 124 123 123 122 122 123 121 119 122 119 118 122 124 129
58 69 82 301 286 291 287 224 135 111 133 111 113 114 46 97 119 136 139 139 140 143 144 156 159 157 157 156 152 148 142 138 135 132 128 128 129 131 132 130 126 124 126 126 125 119 118 120 128
107 101 151 211 280 304 300 145 130 142 137 150 135 121 130 154 144 134 131 127 130 137 140 148 156 158 160 161 158 154 149 145 142 137 131 129 128 130 134 135 132 132 137 133 128 122 121 114 116
123 108 134 223 234 269 296 19 97 123 146 122 127 149 189 181 139 124 117 113 121 131 141 141 144 150 156 160 163 160 156 153 149 143 138 131 128 128 133 130 132 129 135 130 126 124 119 113 121
93 83 200 219 203 245 245 44 358 54 109 106 125 161 161 138 131 124 122 119 139 155 153 148 149 145 148 156 165 159 154 152 146 141 139 128 115 112 120 130 130 124 124 126 124 125 125 124 130
98 150 224 222 199 210 246 167 193 72 81 104 75 83 123 137 144 151 159 165 174 179 178 165 160 154 150 159 152 145 145 143 136 129 126 121 113 105 103 110 119 116 118 120 107 107 114 124 118
151 192 230 248 226 208 214 263 172 149 221 207 179 156 149 152 158 168 173 175 181 180 180 180 173 165 160 156 146 142 138 135 136 137 135 130 118 104 89 82 85 88 97 94 77 83 99 119 122
180 239 228 255 234 207 203 198 188 204 222 195 171 158 159 164 173 179 179 178 172 171 183 180 176 170 166 155 154 151 149 147 151 157 150 144 131 109 101 104 99 93 88 86 81 88 99 109 131
212 268 269 259 278 238 173 215 219 254 244 146 146 154 165 172 178 181 176 170 166 179 185 181 177 174 166 155 160 161 165 163 160 160 165 162 157 149 143 137 122 111 97 94 93 96 96 98 118
232 257 291 298 284 212 168 302 197 260 188 134 151 165 175 178 177 170 170 174 180 185 185 177 175 173 163 166 169 167 171 164 155 166 177 172 165 160 158 149 132 125 125 128 137 137 121 114 118
294 339 337 314 245 226 134 327 272 250 134 145 165 173 174 177 168 177 184 182 181 179 174 172 172 163 163 164 164 155 161 156 164 174 178 176 170 162 160 156 154 151 137 128 115 103 99 108 127
50 55 330 300 290 264 130 261 283 217 140 166 182 181 174 177 172 180 177 173 167 158 160 167 168 158 161 162 158 143 143 144 153 162 166 175 176 173 160 166 187 170 145 128 132 120 108 65 59
36 66 269 301 294 106 140 255 288 200 156 190 197 186 179 176 173 179 173 171 166 161 154 153 151 156 162 156 144 134 131 129 132 130 139 167 179 179 170 177 189 163 142 150 178 138 140 159 324
216 205 266 269 292 86 207 263 288 233 182 203 207 192 186 188 196 184 171 165 160 154 147 147 149 153 146 133 116 109 103 104 111 128 140 151 170 173 160 163 172 157 148 157 164 147 130 137 170
168 188 258 264 254 202 236 264 278 246 212 218 219 203 197 199 195 171 163 161 149 150 151 155 155 156 148 142 147 147 164 164 150 162 157 157 159 151 148 152 154 158 164 173 169 155 137 94 109
185 231 267 289 306 190 247 284 281 230 217 217 218 212 196 186 179 174 163 160 161 164 164 165 168 165 161 163 158 146 145 155 154 89 79 119 137 137 152 151 165 168 164 161 165 157 150 156 148
216 204 226 250 335 5 26 323 311 309 282 276 270 215 196 187 187 185 176 170 165 170 175 176 175 166 162 146 128 109 80 72 65 50 19 333 130 140 136 155 158 162 168 179 181 169 163 171 165
241 222 204 220 300 297 44 282 292 297 307 285 264 214 197 189 188 188 179 173 178 181 172 165 162 155 153 143 147 149 152 162 197 200 214 299 66 123 142 153 157 165 169 175 182 170 172 163 175
218 206 179 191 170 312 339 190 288 305 285 275 246 214 199 190 185 186 186 179 175 166 159 157 149 147 149 149 154 154 148 173 163 150 151 14 4 65 124 149 141 155 178 181 168 155 157 162 171
166 73 62 55 79 263 244 181 279 253 243 265 244 209 193 177 170 172 163 149 150 149 149 148 147 150 151 151 149 155 157 157 150 162 177 214 272 279 188 162 157 173 181 184 183 169 158 158 163
98 96 40 7 15 245 240 195 248 252 244 236 230 214 189 171 161 160 159 158 160 158 157 155 154 155 157 156 156 171 175 176 185 194 194 195 211 242 242 204 194 205 207 193 178 165 166 164 168
169 147 162 194 215 262 284 229 250 264 276 263 221 183 166 166 165 170 174 170 166 166 161 157 158 155 155 157 167 168 164 174 196 202 195 200 210 216 212 196 194 202 191 182 166 159 172 164 173
144 170 166 142 158 212 263 271 296 280 315 312 165 140 175 179 174 172 165 164 164 164 167 165 160 155 162 167 164 150 146 160 184 198 198 203 205 202 185 183 184 195 181 171 159 155 163 154 165
141 144 107 129 156 225 267 255 243 256 257 264 222 194 200 182 172 163 154 152 152 160 166 162 162 169 175 178 170 159 164 175 168 173 200 219 224 218 192 195 193 190 180 165 153 147 159 148 158
112 108 117 126 158 165 236 265 229 217 216 215 231 220 208 187 178 171 159 155 143 137 153 168 171 169 171 173 165 152 162 161 149 196 219 216 207 197 197 193 185 186 180 166 152 156 156 152 157
150 160 150 156 206 179 186 262 289 225 210 196 220 228 214 182 173 165 159 149 149 164 175 178 176 174 182 179 165 159 158 159 175 217 241 219 211 209 206 195 186 188 179 169 165 170 164 164 175
Height
1491 1490 1491 1492 1495 1507 1508 1501 1495 1492 1490 1489 1489 1490 1491 1494 1498 1502 1497 1496 1499 1500 1502 1504 1506 1507 1509 1510 1511 1512 1512 1513 1514 1514 1515 1516 1516 1517 1517 1518 1519 1519 1520 1521 1522 1523 1523 1524 1525
1490 1490 1492 1493 1504 1517 1510 1498 1494 1491 1490 1490 1490 1491 1491 1493 1494 1494 1495 1497 1500 1501 1503 1505 1507 1508 1509 1510 1512 1513 1513 1514 1515 1516 1516 1517 1517 1518 1519 1519 1520 1521 1522 1522 1523 1524 1524 1525 1526
1490 1491 1493 1496 1507 1513 1504 1495 1492 1489 1489 1490 1491 1492 1493 1493 1494 1495 1496 1498 1500 1502 1504 1506 1507 1509 1509 1511 1512 1513 1514 1515 1516 1517 1517 1518 1519 1519 1520 1521 1521 1522 1523 1524 1524 1525 1526 1526 1527
1491 1492 1494 1501 1505 1502 1496 1491 1489 1489 1489 1490 1491 1493 1494 1495 1495 1496 1497 1499 1501 1503 1505 1507 1508 1509 1510 1512 1513 1514 1515 1516 1517 1517 1518 1519 1519 1520 1521 1522 1522 1523 1524 1525 1525 1526 1527 1528 1528
1491 1492 1500 1509 1504 1497 1492 1489 1489 1489 1490 1490 1491 1493 1494 1496 1496 1497 1498 1500 1502 1504 1506 1507 1509 1510 1511 1512 1514 1515 1516 1517 1518 1518 1519 1520 1520 1521 1522 1522 1523 1524 1525 1526 1527 1527 1528 1529 1529
1491 1493 1509 1512 1503 1494 1490 1489 1489 1489 1490 1491 1491 1493 1495 1496 1496 1498 1500 1501 1504 1505 1507 1508 1510 1511 1512 1513 1514 1516 1517 1517 1518 1519 1520 1520 1521 1522 1522 1523 1524 1525 1526 1527 1527 1528 1529 1530 1530
1492 1498 1506 1505 1503 1496 1490 1488 1489 1490 1490 1491 1491 1493 1494 1496 1497 1499 1500 1503 1504 1506 1508 1509 1511 1512 1513 1514 1515 1516 1517 1518 1519 1520 1521 1521 1522 1522 1523 1524 1525 1525 1526 1527 1528 1528 1530 1530 1531
1490 1497 1502 1504 1501 1496 1489 1489 1489 1489 1490 1491 1492 1492 1494 1495 1497 1499 1501 1503 1505 1507 1508 1510 1511 1512 1513 1514 1516 1517 1518 1519 1520 1520 1521 1522 1523 1523 1524 1525 1525 1526 1526 1527 1528 1529 1530 1531 1532
1491 1501 1506 1500 1497 1493 1489 1489 1489 1490 1490 1491 1491 1492 1493 1495 1496 1499 1501 1503 1505 1507 1508 1510 1511 1513 1514 1515 1516 1517 1518 1519 1520 1521 1522 1523 1523 1524 1525 1525 1526 1527 1527 1528 1529 1530 1531 1531 1532
1490 1502 1498 1491 1489 1489 1488 1488 1489 1490 1490 1491 1491 1492 1493 1494 1496 1498 1500 1502 1504 1506 1508 1510 1511 1513 1514 1515 1516 1517 1518 1519 1520 1521 1522 1523 1523 1524 1525 1526 1526 1527 1528 1529 1529 1530 1531 1531 1532
1489 1494 1489 1487 1486 1486 1487 1488 1488 1489 1490 1489 1489 1490 1492 1494 1496 1498 1499 1501 1504 1506 1508 1510 1511 1513 1514 1515 1516 1517 1518 1519 1520 1521 1522 1523 1524 1524 1525 1526 1527 1527 1528 1529 1530 1530 1531 1532 1532
1489 1487 1486 1485 1485 1486 1487 1487 1488 1488 1487 1487 1488 1489 1491 1492 1494 1496 1499 1501 1504 1506 1508 1510 1511 1513 1514 1515 1516 1517 1518 1519 1520 1521 1522 1523 1523 1524 1525 1526 1527 1527 1528 1529 1530 1530 1531 1532 1533
1487 1486 1485 1484 1485 1485 1486 1486 1487 1486 1485 1485 1487 1489 1490 1491 1493 1496 1499 1501 1503 1505 1507 1509 1511 1513 1514 1514 1515 1517 1518 1519 1520 1520 1522 1522 1523 1524 1525 1526 1526 1527 1528 1528 1530 1530 1531 1532 1533
1485 1485 1484 1484 1484 1484 1485 1486 1487 1485 1484 1485 1486 1487 1489 1490 1493 1496 1498 1500 1502 1504 1507 1509 1510 1512 1513 1514 1515 1516 1517 1518 1519 1520 1521 1522 1523 1523 1524 1525 1526 1526 1527 1528 1529 1530 1531 1532 1532
1484 1485 1485 1484 1483 1484 1485 1488 1486 1484 1484 1484 1486 1487 1488 1490 1492 1494 1496 1499 1501 1503 1506 1508 1510 1511 1512 1514 1515 1516 1517 1518 1519 1520 1521 1521 1522 1523 1523 1524 1525 1525 1526 1528 1528 1529 1530 1531 1532
1485 1490 1494 1486 1483 1483 1488 1495 1485 1484 1484 1484 1485 1486 1488 1490 1491 1494 1496 1498 1500 1502 1504 1506 1509 1510 1512 1513 1514 1515 1516 1517 1518 1519 1520 1521 1521 1522 1522 1523 1523 1524 1525 1526 1527 1528 1529 1530 1531
1494 1499 1496 1490 1484 1484 1488 1492 1484 1483 1483 1484 1484 1485 1487 1489 1490 1492 1494 1497 1499 1501 1503 1505 1507 1509 1511 1512 1513 1514 1515 1516 1517 1518 1519 1519 1520 1520 1521 1521 1522 1523 1524 1525 1526 1527 1528 1529 1529
1499 1498 1496 1494 1487 1486 1490 1490 1484 1483 1482 1482 1483 1484 1486 1487 1488 1490 1493 1495 1498 1500 1502 1504 1506 1508 1510 1511 1512 1513 1514 1515 1516 1516 1517 1518 1518 1519 1520 1520 1521 1522 1523 1523 1524 1525 1526 1527 1528
1490 1494 1496 1491 1485 1488 1490 1489 1484 1482 1482 1481 1482 1482 1484 1485 1488 1490 1492 1494 1496 1498 1500 1502 1504 1506 1508 1509 1510 1511 1512 1513 1514 1515 1516 1516 1517 1518 1518 1518 1519 1520 1521 1522 1523 1524 1525 1526 1526
1489 1494 1494 1489 1483 1486 1489 1488 1482 1480 1480 1480 1480 1480 1481 1483 1486 1488 1490 1492 1494 1496 1498 1501 1503 1504 1506 1508 1509 1510 1511 1512 1513 1514 1514 1515 1516 1516 1517 1517 1518 1518 1519 1520 1521 1522 1523 1524 1525
1489 1492 1491 1490 1486 1485 1488 1491 1485 1480 1479 1479 1478 1479 1480 1481 1483 1486 1488 1490 1492 1494 1496 1498 1501 1503 1505 1506 1508 1509 1509 1510 1511 1512 1513 1514 1514 1515 1515 1516 1516 1517 1518 1518 1519 1520 1521 1522 1523
1490 1482 1484 1486 1493 1499 1493 1504 1490 1482 1480 1477 1476 1476 1478 1479 1481 1483 1486 1488 1490 1492 1494 1497 1499 1501 1503 1505 1506 1507 1507 1508 1509 1510 1512 1513 1513 1513 1514 1514 1515 1515 1516 1516 1517 1518 1519 1520 1521
1480 1477 1481 1485 1492 1499 1497 1503 1496 1484 1482 1477 1475 1475 1476 1477 1480 1482 1484 1486 1489 1491 1493 1496 1498 1500 1502 1503 1504 1505 1506 1507 1508 1509 1510 1511 1511 1512 1512 1512 1513 1513 1514 1515 1516 1516 1517 1518 1519
1474 1480 1485 1493 1499 1508 1499 1504 1500 1487 1480 1475 1473 1473 1474 1476 1479 1481 1484 1486 1489 1491 1493 1494 1496 1498 1500 1501 1502 1504 1504 1505 1506 1507 1508 1509 1509 1510 1510 1511 1511 1512 1512 1513 1514 1514 1515 1516 1517
1476 1491 1506 1509 1516 1511 1497 1499 1495 1477 1473 1472 1471 1472 1473 1475 1477 1480 1482 1484 1487 1489 1491 1493 1495 1496 1497 1499 1500 1502 1503 1504 1504 1505 1506 1506 1507 1507 1508 1508 1509 1510 1510 1511 1512 1512 1513 1514 1515
1478 1486 1505 1513 1515 1509 1498 1498 1485 1472 1470 1470 1469 1471 1472 1474 1476 1478 1480 1482 1485 1487 1489 1491 1493 1495 1496 1497 1499 1500 1501 1502 1503 1504 1504 1504 1505 1505 1506 1506 1507 1507 1508 1509 1510 1510 1511 1512 1513
1478 1484 1484 1499 1504 1509 1502 1491 1479 1470 1470 1469 1469 1469 1470 1472 1474 1476 1478 1481 1483 1485 1487 1489 1491 1493 1495 1496 1497 1498 1499 1500 1501 1502 1502 1503 1503 1504 1504 1504 1504 1505 1506 1506 1507 1508 1509 1510 1511
1470 1478 1490 1500 1509 1510 1500 1493 1487 1474 1471 1469 1469 1469 1470 1471 1473 1475 1477 1479 1481 1483 1485 1487 1489 1491 1492 1494 1495 1496 1497 1498 1499 1500 1500 1500 1501 1501 1502 1502 1502 1502 1503 1504 1504 1505 1506 1507 1508
1474 1479 1487 1497 1499 1506 1507 1496 1472 1470 1468 1468 1468 1468 1469 1471 1472 1474 1476 1478 1480 1482 1484 1486 1487 1489 1490 1492 1493 1494 1495 1496 1497 1497 1497 1498 1498 1499 1499 1500 1500 1500 1500 1501 1502 1503 1504 1505 1506
1467 1474 1482 1493 1497 1499 1502 1493 1466 1465 1465 1466 1467 1467 1468 1470 1472 1473 1475 1477 1479 1480 1482 1484 1485 1487 1488 1490 1491 1492 1493 1494 1494 1495 1495 1495 1496 1496 1497 1498 1498 1498 1499 1499 1500 1501 1502 1503 1503